Texarkana, AR

12:58 AM CST on February 18, 2018 (GMT -0600)
Texarkana Regional-Webb

Weather History for KTXK - October, 2011

Change the Weather History Date:

Wednesday, October 5, 2011

  Actual Average Record
Temperature  
Mean Temperature 67 °F 68 °F  
Max Temperature 86 °F 80 °F 97 °F (1898)
Min Temperature 47 °F 56 °F 39 °F (1932)
Degree Days  
Heating Degree Days 0 2  
Month to date heating degree days 5 7  
Since 1 July heating degree days 5 18  
Cooling Degree Days 2 5  
Month to date cooling degree days 3 26  
Year to date cooling degree days 2804 2120  
Growing Degree Days 17 (Base 50)    
Moisture  
Dew Point 42 °F    
Average Humidity 45    
Maximum Humidity 71    
Minimum Humidity 19    
Precipitation  
Precipitation 0.00 in 0.14 in 1.42 in (1976)
Month to date precipitation 0.00 0.67  
Year to date precipitation 21.04 35.52  
Snow  
Snow 0.00 in - - ()
Month to date snowfall 0.0  
Since 1 July snowfall 0.0  
Since 1 September snowfall 0.0  
Snow Depth 0.00 in    
Sea Level Pressure  
Sea Level Pressure 30.13 in    
Wind  
Wind Speed 4 mph (ESE)    
Max Wind Speed 12 mph    
Max Gust Speed 15 mph    
Visibility 10 miles    
Events      
T = Trace of Precipitation, MM = Missing Value Source: NWS Daily Summary

Daily Weather History Graph

Daily Weather History Graph

Search for Another Location

Airport or City:

Trip Planner

Search our weather history database for the weather conditions in past years. The results will help you decide how hot, cold, wet, or windy it might be!

Date:

Astronomy

Oct. 05, 2011 Rise Set
Actual Time 7:12 AM CDT 6:55 PM CDT
Civil Twilight 6:48 AM CDT 7:20 PM CDT
Nautical Twilight 6:19 AM CDT 7:48 PM CDT
Astronomical Twilight 5:50 AM CDT 8:17 PM CDT
Moon 3:20 PM CDT (10/5) 1:17 AM CDT (10/5)
Length of Visible Light 12h 32m
Length of Day
11h 42m
Waxing Gibbous, 66% of the Moon is Illuminated
Oct 5
Waxing Gibbous
Oct 11
Full
Oct 19
Last Quarter
Oct 26
New
Nov 2
First Quarter

Hourly Weather History & Observations

Time (CDT) Temp. Dew Point Humidity Pressure Visibility Wind Dir Wind Speed Gust Speed Precip Events Conditions
12:53 AM 64.9 °F 39.0 °F 39% 30.16 in 10.0 mi SE 6.9 mph - N/A   Clear
1:53 AM 62.6 °F 39.2 °F 42% 30.17 in 10.0 mi SE 5.8 mph - N/A   Clear
2:53 AM 64.4 °F 39.2 °F 40% 30.16 in 10.0 mi SE 5.8 mph - N/A   Clear
3:53 AM 54.0 °F 41.0 °F 62% 30.15 in 10.0 mi Calm Calm - N/A   Clear
4:53 AM 51.1 °F 41.0 °F 68% 30.16 in 10.0 mi East 3.5 mph - N/A   Clear
5:53 AM 54.0 °F 41.0 °F 62% 30.17 in 10.0 mi ESE 5.8 mph - N/A   Clear
6:53 AM 50.0 °F 41.0 °F 71% 30.19 in 10.0 mi Calm Calm - N/A   Clear
7:53 AM 53.1 °F 42.1 °F 66% 30.20 in 10.0 mi East 5.8 mph - N/A   Clear
8:53 AM 59.0 °F 44.1 °F 58% 30.21 in 10.0 mi Calm Calm - N/A   Clear
9:53 AM 66.9 °F 46.0 °F 47% 30.22 in 10.0 mi Calm Calm - N/A   Clear
10:53 AM 73.0 °F 46.0 °F 38% 30.21 in 10.0 mi ENE 4.6 mph - N/A   Clear
11:53 AM 78.1 °F 43.0 °F 29% 30.19 in 10.0 mi East 8.1 mph - N/A   Clear
12:53 PM 81.0 °F 43.0 °F 26% 30.16 in 10.0 mi Variable 3.5 mph - N/A   Clear
1:53 PM 82.4 °F 42.8 °F 25% 30.14 in 10.0 mi Variable 4.6 mph - N/A   Clear
2:53 PM 82.9 °F 39.9 °F 22% 30.09 in 10.0 mi Variable 3.5 mph - N/A   Clear
3:53 PM 84.9 °F 39.9 °F 20% 30.07 in 10.0 mi ESE 4.6 mph - N/A   Clear
4:53 PM 84.9 °F 37.0 °F 18% 30.06 in 10.0 mi Variable 4.6 mph - N/A   Clear
5:53 PM 82.4 °F 39.2 °F 21% 30.06 in 10.0 mi ENE 4.6 mph - N/A   Clear
6:53 PM 78.1 °F 42.1 °F 28% 30.05 in 10.0 mi East 3.5 mph - N/A   Clear
7:53 PM 72.0 °F 42.1 °F 34% 30.05 in 10.0 mi Calm Calm - N/A   Clear
8:53 PM 71.6 °F 44.6 °F 38% 30.08 in 10.0 mi East 3.5 mph - N/A   Clear
9:53 PM 69.1 °F 45.0 °F 42% 30.08 in 10.0 mi Calm Calm - N/A   Clear
10:53 PM 66.9 °F 45.0 °F 45% 30.07 in 10.0 mi East 3.5 mph - N/A   Clear
11:53 PM 70.0 °F 45.0 °F 41% 30.08 in 10.0 mi SE 8.1 mph - N/A   Clear